Time,TemperatureF,DewpointF,PressureIn,WindDirection,WindDirectionDegrees,WindSpeedMPH,WindSpeedGustMPH,Humidity,HourlyPrecipIn,Conditions,Clouds,dailyrainin,SoftwareType,DateUTC
2013-11-04 00:11:00,24.6,24.1,30.42,WNW,292,0.0,-999.0,98,-99.99,,,0.00,Acu-Link.com,2013-11-04 05:11:00,
2013-11-04 00:26:00,24.3,23.6,30.43,NNE,22,0.0,-999.0,97,-99.99,,,0.00,Acu-Link.com,2013-11-04 05:26:00,
2013-11-04 00:41:00,23.9,23.4,30.43,NNE,22,0.0,-999.0,98,-99.99,,,0.00,Acu-Link.com,2013-11-04 05:41:00,
2013-11-04 00:56:00,23.5,23.0,30.43,NNE,22,0.0,-999.0,98,-99.99,,,0.00,Acu-Link.com,2013-11-04 05:56:00,
2013-11-04 01:12:00,23.2,22.7,30.43,NW,315,0.0,-999.0,98,-99.99,,,0.00,Acu-Link.com,2013-11-04 06:12:00,
2013-11-04 01:27:00,23.0,22.5,30.44,East,90,0.0,-999.0,98,-99.99,,,0.00,Acu-Link.com,2013-11-04 06:27:00,
2013-11-04 01:42:00,22.6,22.1,30.45,WNW,292,0.0,-999.0,98,-99.99,,,0.00,Acu-Link.com,2013-11-04 06:42:00,
2013-11-04 01:57:00,22.6,22.1,30.46,WNW,292,0.0,-999.0,98,-99.99,,,0.00,Acu-Link.com,2013-11-04 06:57:00,
2013-11-04 02:12:00,22.3,21.8,30.47,WNW,292,0.0,-999.0,98,-99.99,,,0.00,Acu-Link.com,2013-11-04 07:12:00,
2013-11-04 02:27:00,22.3,21.8,30.47,WNW,292,0.0,-999.0,98,-99.99,,,0.00,Acu-Link.com,2013-11-04 07:27:00,
2013-11-04 02:42:00,21.9,21.4,30.47,NW,315,0.0,-999.0,98,-99.99,,,0.00,Acu-Link.com,2013-11-04 07:42:00,
2013-11-04 02:58:00,21.9,21.4,30.49,NNE,22,0.0,-999.0,98,-99.99,,,0.00,Acu-Link.com,2013-11-04 07:58:00,
2013-11-04 03:13:00,21.7,21.2,30.49,NW,315,0.0,-999.0,98,-99.99,,,0.00,Acu-Link.com,2013-11-04 08:13:00,
2013-11-04 03:29:00,21.6,21.1,30.49,WNW,292,0.0,-999.0,98,-99.99,,,0.00,Acu-Link.com,2013-11-04 08:29:00,
2013-11-04 03:44:00,21.4,20.9,30.50,North,0,0.0,-999.0,98,-99.99,,,0.00,Acu-Link.com,2013-11-04 08:44:00,
2013-11-04 03:59:00,21.0,20.5,30.51,WNW,292,0.0,-999.0,98,-99.99,,,0.00,Acu-Link.com,2013-11-04 08:59:00,
2013-11-04 04:14:00,20.8,20.3,30.52,NNE,22,0.0,-999.0,98,-99.99,,,0.00,Acu-Link.com,2013-11-04 09:14:00,
2013-11-04 04:29:00,20.8,20.3,30.52,NW,315,0.0,-999.0,98,-99.99,,,0.00,Acu-Link.com,2013-11-04 09:29:00,
2013-11-04 04:44:00,20.5,20.0,30.53,West,270,0.0,-999.0,98,-99.99,,,0.00,Acu-Link.com,2013-11-04 09:44:00,
2013-11-04 05:00:00,20.3,19.8,30.53,ESE,112,0.0,-999.0,98,-99.99,,,0.00,Acu-Link.com,2013-11-04 10:00:00,
2013-11-04 05:15:00,20.1,19.6,30.53,ESE,112,0.0,-999.0,98,-99.99,,,0.00,Acu-Link.com,2013-11-04 10:15:00,
2013-11-04 05:30:00,20.1,19.6,30.54,WNW,292,0.0,-999.0,98,-99.99,,,0.00,Acu-Link.com,2013-11-04 10:30:00,
2013-11-04 05:45:00,20.1,19.6,30.56,North,0,0.0,-999.0,98,-99.99,,,0.00,Acu-Link.com,2013-11-04 10:45:00,
2013-11-04 06:01:00,19.9,19.4,30.57,East,90,0.0,-999.0,98,-99.99,,,0.00,Acu-Link.com,2013-11-04 11:01:00,
2013-11-04 06:16:00,19.8,19.3,30.58,East,90,0.0,-999.0,98,-99.99,,,0.00,Acu-Link.com,2013-11-04 11:16:00,
2013-11-04 06:31:00,19.6,19.1,30.59,East,90,0.0,-999.0,98,-99.99,,,0.00,Acu-Link.com,2013-11-04 11:31:00,
2013-11-04 06:46:00,19.6,19.1,30.60,East,90,0.0,-999.0,98,-99.99,,,0.00,Acu-Link.com,2013-11-04 11:46:00,
2013-11-04 07:02:00,19.6,19.1,30.61,East,90,0.0,-999.0,98,-99.99,,,0.00,Acu-Link.com,2013-11-04 12:02:00,
2013-11-04 07:17:00,19.8,19.3,30.61,East,90,0.0,-999.0,98,-99.99,,,0.00,Acu-Link.com,2013-11-04 12:17:00,
2013-11-04 07:32:00,20.3,19.8,30.62,WNW,292,0.0,-999.0,98,-99.99,,,0.00,Acu-Link.com,2013-11-04 12:32:00,
2013-11-04 07:47:00,21.2,20.7,30.62,WSW,247,0.0,-999.0,98,-99.99,,,0.00,Acu-Link.com,2013-11-04 12:47:00,
2013-11-04 08:03:00,22.6,22.1,30.62,East,90,0.0,-999.0,98,-99.99,,,0.00,Acu-Link.com,2013-11-04 13:03:00,
2013-11-04 08:18:00,24.4,23.9,30.63,East,90,0.0,-999.0,98,-99.99,,,0.00,Acu-Link.com,2013-11-04 13:18:00,
2013-11-04 08:33:00,26.1,21.1,30.62,SSW,202,0.0,-999.0,81,-99.99,,,0.00,Acu-Link.com,2013-11-04 13:33:00,
2013-11-04 08:48:00,28.8,21.6,30.63,WNW,292,0.0,-999.0,74,-99.99,,,0.00,Acu-Link.com,2013-11-04 13:48:00,
2013-11-04 09:03:00,30.9,21.3,30.62,SW,225,0.0,-999.0,67,-99.99,,,0.00,Acu-Link.com,2013-11-04 14:03:00,
2013-11-04 09:18:00,33.4,20.6,30.62,SSW,202,2.2,-999.0,59,-99.99,,,0.00,Acu-Link.com,2013-11-04 14:18:00,
2013-11-04 09:33:00,35.2,21.9,30.62,South,180,0.0,-999.0,58,-99.99,,,0.00,Acu-Link.com,2013-11-04 14:33:00,
2013-11-04 09:49:00,35.2,23.1,30.62,NW,315,0.0,-999.0,61,-99.99,,,0.00,Acu-Link.com,2013-11-04 14:49:00,
2013-11-04 10:04:00,36.1,21.9,30.63,SW,225,1.1,-999.0,56,-99.99,,,0.00,Acu-Link.com,2013-11-04 15:04:00,
2013-11-04 10:19:00,37.0,22.4,30.61,SSE,157,1.1,-999.0,55,-99.99,,,0.00,Acu-Link.com,2013-11-04 15:19:00,
2013-11-04 10:34:00,35.8,21.7,30.62,North,0,1.7,-999.0,56,-99.99,,,0.00,Acu-Link.com,2013-11-04 15:34:00,
2013-11-04 10:49:00,36.5,21.0,30.62,SSW,202,1.7,-999.0,53,-99.99,,,0.00,Acu-Link.com,2013-11-04 15:49:00,
2013-11-04 11:05:00,37.8,23.1,30.63,SSE,157,2.7,-999.0,55,-99.99,,,0.00,Acu-Link.com,2013-11-04 16:05:00,
2013-11-04 11:20:00,36.9,21.4,30.62,SW,225,1.7,-999.0,53,-99.99,,,0.00,Acu-Link.com,2013-11-04 16:20:00,
2013-11-04 11:35:00,37.6,21.6,30.62,SSW,202,2.7,-999.0,52,-99.99,,,0.00,Acu-Link.com,2013-11-04 16:35:00,
2013-11-04 11:50:00,37.4,21.4,30.62,South,180,3.7,-999.0,52,-99.99,,,0.00,Acu-Link.com,2013-11-04 16:50:00,
2013-11-04 12:06:00,37.9,21.9,30.61,ESE,112,0.0,-999.0,52,-99.99,,,0.00,Acu-Link.com,2013-11-04 17:06:00,
2013-11-04 12:21:00,37.8,20.8,30.60,NE,45,1.1,-999.0,50,-99.99,,,0.00,Acu-Link.com,2013-11-04 17:21:00,
2013-11-04 12:36:00,38.8,22.2,30.61,NE,45,1.7,-999.0,51,-99.99,,,0.00,Acu-Link.com,2013-11-04 17:36:00,
2013-11-04 12:51:00,39.0,22.4,30.59,SW,225,0.0,-999.0,51,-99.99,,,0.00,Acu-Link.com,2013-11-04 17:51:00,
2013-11-04 13:06:00,39.4,21.8,30.59,East,90,0.0,-999.0,49,-99.99,,,0.00,Acu-Link.com,2013-11-04 18:06:00,
2013-11-04 13:22:00,39.9,21.8,30.59,WNW,292,0.0,-999.0,48,-99.99,,,0.00,Acu-Link.com,2013-11-04 18:22:00,
2013-11-04 13:37:00,40.1,22.5,30.59,SW,225,0.0,-999.0,49,-99.99,,,0.00,Acu-Link.com,2013-11-04 18:37:00,
2013-11-04 13:52:00,39.7,23.5,30.59,North,0,0.0,-999.0,52,-99.99,,,0.00,Acu-Link.com,2013-11-04 18:52:00,
2013-11-04 14:07:00,39.4,21.8,30.59,South,180,0.0,-999.0,49,-99.99,,,0.00,Acu-Link.com,2013-11-04 19:07:00,
2013-11-04 14:22:00,39.4,22.3,30.60,ESE,112,0.0,-999.0,50,-99.99,,,0.00,Acu-Link.com,2013-11-04 19:22:00,
2013-11-04 14:37:00,39.2,22.6,30.60,NW,315,0.0,-999.0,51,-99.99,,,0.00,Acu-Link.com,2013-11-04 19:37:00,
2013-11-04 14:53:00,38.8,24.5,30.59,NW,315,0.0,-999.0,56,-99.99,,,0.00,Acu-Link.com,2013-11-04 19:53:00,
2013-11-04 15:08:00,37.9,24.5,30.60,NW,315,0.0,-999.0,58,-99.99,,,0.00,Acu-Link.com,2013-11-04 20:08:00,
2013-11-04 15:23:00,37.0,24.0,30.61,NW,315,0.0,-999.0,59,-99.99,,,0.00,Acu-Link.com,2013-11-04 20:23:00,
2013-11-04 15:38:00,35.8,23.3,30.61,NW,315,0.0,-999.0,60,-99.99,,,0.00,Acu-Link.com,2013-11-04 20:38:00,
2013-11-04 15:54:00,34.7,22.3,30.61,NW,315,0.0,-999.0,60,-99.99,,,0.00,Acu-Link.com,2013-11-04 20:54:00,
2013-11-04 16:09:00,33.8,21.8,30.62,NW,315,0.0,-999.0,61,-99.99,,,0.00,Acu-Link.com,2013-11-04 21:09:00,
2013-11-04 16:24:00,32.9,22.4,30.62,WNW,292,0.0,-999.0,65,-99.99,,,0.00,Acu-Link.com,2013-11-04 21:24:00,
2013-11-04 16:39:00,32.0,21.9,30.63,WNW,292,0.0,-999.0,66,-99.99,,,0.00,Acu-Link.com,2013-11-04 21:39:00,
2013-11-04 16:54:00,31.1,22.1,30.63,NW,315,0.0,-999.0,69,-99.99,,,0.00,Acu-Link.com,2013-11-04 21:54:00,
2013-11-04 17:10:00,30.4,21.8,30.63,NW,315,0.0,-999.0,70,-99.99,,,0.00,Acu-Link.com,2013-11-04 22:10:00,
2013-11-04 17:25:00,30.0,22.4,30.63,NW,315,0.0,-999.0,73,-99.99,,,0.00,Acu-Link.com,2013-11-04 22:25:00,
2013-11-04 17:40:00,29.3,22.4,30.64,NW,315,0.0,-999.0,75,-99.99,,,0.00,Acu-Link.com,2013-11-04 22:40:00,
2013-11-04 17:55:00,29.1,23.7,30.65,NW,315,0.0,-999.0,80,-99.99,,,0.00,Acu-Link.com,2013-11-04 22:55:00,
2013-11-04 18:10:00,28.8,24.0,30.66,NW,315,0.0,-999.0,82,-99.99,,,0.00,Acu-Link.com,2013-11-04 23:10:00,
2013-11-04 18:26:00,28.4,23.6,30.66,NNE,22,0.0,-999.0,82,-99.99,,,0.00,Acu-Link.com,2013-11-04 23:26:00,
2013-11-04 18:41:00,28.0,23.5,30.66,WNW,292,0.0,-999.0,83,-99.99,,,0.00,Acu-Link.com,2013-11-04 23:41:00,
2013-11-04 18:56:00,27.7,23.8,30.67,WNW,292,0.0,-999.0,85,-99.99,,,0.00,Acu-Link.com,2013-11-04 23:56:00,
2013-11-04 19:12:00,27.5,25.0,30.66,WNW,292,0.0,-999.0,90,-99.99,,,0.00,Acu-Link.com,2013-11-05 00:12:00,
2013-11-04 19:27:00,27.1,25.6,30.66,NW,315,0.0,-999.0,94,-99.99,,,0.00,Acu-Link.com,2013-11-05 00:27:00,
2013-11-04 19:42:00,26.8,26.1,30.66,WNW,292,0.0,-999.0,97,-99.99,,,0.00,Acu-Link.com,2013-11-05 00:42:00,
2013-11-04 19:57:00,26.6,26.1,30.66,WNW,292,0.0,-999.0,98,-99.99,,,0.00,Acu-Link.com,2013-11-05 00:57:00,
2013-11-04 20:13:00,26.6,26.1,30.66,WNW,292,0.0,-999.0,98,-99.99,,,0.00,Acu-Link.com,2013-11-05 01:13:00,
2013-11-04 20:28:00,26.2,25.7,30.67,WNW,292,0.0,-999.0,98,-99.99,,,0.00,Acu-Link.com,2013-11-05 01:28:00,
2013-11-04 20:43:00,25.9,25.4,30.68,WNW,292,0.0,-999.0,98,-99.99,,,0.00,Acu-Link.com,2013-11-05 01:43:00,
2013-11-04 20:58:00,25.5,25.0,30.68,WNW,292,0.0,-999.0,98,-99.99,,,0.00,Acu-Link.com,2013-11-05 01:58:00,
2013-11-04 21:13:00,25.3,24.8,30.69,WNW,292,0.0,-999.0,98,-99.99,,,0.00,Acu-Link.com,2013-11-05 02:13:00,
2013-11-04 21:29:00,25.2,24.7,30.69,WNW,292,0.0,-999.0,98,-99.99,,,0.00,Acu-Link.com,2013-11-05 02:29:00,
2013-11-04 21:44:00,25.0,24.5,30.69,WNW,292,0.0,-999.0,98,-99.99,,,0.00,Acu-Link.com,2013-11-05 02:44:00,
2013-11-04 21:59:00,24.8,24.3,30.69,WNW,292,0.0,-999.0,98,-99.99,,,0.00,Acu-Link.com,2013-11-05 02:59:00,
2013-11-04 22:15:00,24.6,24.1,30.68,WNW,292,0.0,-999.0,98,-99.99,,,0.00,Acu-Link.com,2013-11-05 03:15:00,
2013-11-04 22:30:00,24.3,23.8,30.69,WNW,292,0.0,-999.0,98,-99.99,,,0.00,Acu-Link.com,2013-11-05 03:30:00,
2013-11-04 22:45:00,24.1,23.6,30.68,WNW,292,0.0,-999.0,98,-99.99,,,0.00,Acu-Link.com,2013-11-05 03:45:00,
2013-11-04 23:00:00,23.9,23.4,30.69,WNW,292,0.0,-999.0,98,-99.99,,,0.00,Acu-Link.com,2013-11-05 04:00:00,
2013-11-04 23:15:00,23.5,23.0,30.70,WNW,292,0.0,-999.0,98,-99.99,,,0.00,Acu-Link.com,2013-11-05 04:15:00,
2013-11-04 23:31:00,23.4,22.9,30.70,WNW,292,0.0,-999.0,98,-99.99,,,0.00,Acu-Link.com,2013-11-05 04:31:00,
2013-11-04 23:46:00,23.0,22.5,30.70,WNW,292,0.0,-999.0,98,-99.99,,,0.00,Acu-Link.com,2013-11-05 04:46:00,